Regional Weather Roundup
Issued by NWS Sterling, VA

Home | Current Version | Previous Version | Graphics & Text | Print | Product List | Glossary On
Versions: 1 2 3 4 5 6 7 8 9 10 11 12 13 14 15 16 17 18 19 20 21 22 23 24 25 26 27 28 29 30 31 32 33 34 35 36 37 38 39 40 41 42 43 44 45 46 47 48 49 50
459
ASUS41 KLWX 170511
RWRLWX

REGIONAL WEATHER ROUNDUP
NATIONAL WEATHER SERVICE BALTIMORE MD/WASHINGTON DC
1200 AM EST SAT FEB 17 2018

Note: "FAIR" indicates few or no clouds below 12,000 feet
with no significant weather and/or obstructions to visibility.
 TC=TEMPERATURE CELSIUS

 * =Non NWS site. Station does not report precipitation (e.g. rain,
    snow, etc.), thunder, or fog.

DCZ001-MDZ009-015-VAZ040>042-051-053>054-170600-
WASHINGTON METRO

CITY           SKY/WX    TMP DP  RH WIND       PRES   REMARKS
WASHINGTON NAT FAIR      40  26  57 N16       30.27R WCI  31
DULLES         MOCLDY    36  27  69 NW8       30.26R WCI  30
ANDREWS AFB    FAIR      38  26  60 NW14      30.23R WCI  30
FT BELVOIR     FAIR      40  25  56 N7        30.26R WCI  35
QUANTICO       FAIR      41  29  62 N7        30.27R
COLLEGE PARK*  FAIR      38  25  58 N5        30.26R WCI  35
LEESBURG*      FAIR      36  28  75 NW7       30.28R WCI  30
MANASSAS*      FAIR      37  27  67 NW13      30.26R WCI  29
GAITHERSBURG*  FAIR      34  25  69 NW7       30.26R WCI  28

$$

MDZ006>007-011-014-170600-
BALTIMORE METRO

CITY           SKY/WX    TMP DP  RH WIND       PRES   REMARKS
BWI AIRPORT    MOCLDY    37  25  61 NW9       30.24R WCI  30
MD SCIENCE CTR   N/A     40  26  57 MISG      30.23R
MARTIN STATE   FAIR      36  32  87 W7        30.25R WCI  30
ANNAPOLIS      FAIR      43  29  57 NW9       30.23R
FORT MEADE*    FAIR      36  28  75 NW5       30.28R WCI  32

$$

MDZ012-015-019>023-170600-
MARYLAND EASTERN SHORE

CITY           SKY/WX    TMP DP  RH WIND       PRES   REMARKS
OCEAN CITY     FAIR      43  35  73 N8        30.20R
SALISBURY      FAIR      42  33  70 NW10      30.20R
BAY BRIDGE AP* FAIR      39  28  65 NW9       30.24R WCI  33
CAMBRIDGE*     CLEAR     41  30  65 NW9       30.23R
EASTON*        FAIR      40  29  65 N9        30.27R WCI  34

$$

MDZ017>025-170600-
SOUTHERN MARYLAND

CITY           SKY/WX    TMP DP  RH WIND       PRES   REMARKS
PATUXENT RIVER FAIR      42  30  62 N15       30.23R WCI  34
ST INIGOES     FAIR      44  30  57 VRB3      30.23R
LEONARDTOWN*   FAIR      41  30  65 NW5       30.26R

$$

MDZ003>005-170600-
NORTH CENTRAL MARYLAND

CITY           SKY/WX    TMP DP  RH WIND       PRES   REMARKS
FREDERICK*     FAIR      36  23  60 N3        30.30R
HAGERSTOWN APT FAIR      34  22  61 NW14      30.26R WCI  25
WESTMINSTER*   FAIR      34  25  69 NW6       30.23R WCI  29

$$

MDZ501>502-170600-
WESTERN MARYLAND

CITY           SKY/WX    TMP DP  RH WIND       PRES   REMARKS
OAKLAND*       CLOUDY    23  21  93 NW3       30.15R
CUMBERLAND*    CLOUDY    34  23  64 N7        30.31R WCI  28

$$

VAZ025>031-170600-
SHENANDOAH VALLEY

CITY           SKY/WX    TMP DP  RH WIND       PRES   REMARKS
WINCHESTER*    FAIR      32  23  69 NW6       30.28R WCI  26
FRONT ROYAL*   FAIR      36  27  69 CALM      30.25S
LURAY*         CLOUDY    39  30  70 N5        30.24R
NEW MARKET*    MOCLDY    37  28  68 NE5       30.23R WCI  34
STAUNTON*      FAIR      36  29  77 NE6       30.24R WCI  31
WAYNESBORO*    FAIR      37  31  78 N5        30.21R WCI  34

$$

WVZ021-048>050-054>055-170600-
EASTERN WEST VIRGINIA PANHANDLE

CITY           SKY/WX    TMP DP  RH WIND       PRES   REMARKS
MARTINSBURG    FAIR      34  23  64 NW6       30.26R WCI  29
PETERSBURG*    FAIR      35  25  67 N6        30.25R WCI  30

$$

VAZ036>039-050-170600-
CENTRAL FOOTHILLS

CITY           SKY/WX    TMP DP  RH WIND       PRES   REMARKS
CHARLOTTESVILL FAIR      44  30  57 NE6       30.22R
CULPEPER*      FAIR      39  26  60 N9G18     30.26R WCI  33
ORANGE*        FAIR      37  30  75 CALM      30.24R
GORDONSVILLE*  FAIR      40  32  74 NE3       30.23R
WARRENTON*     FAIR      39  24  54 N6        30.24R WCI  35

$$

VAZ055>057-170600-
NORTH AND CENTRAL PIEDMONT

CITY           SKY/WX    TMP DP  RH WIND       PRES   REMARKS
FREDERICKSBRG* FAIR      41  31  67 NE5       30.25R
STAFFORD*      FAIR      40  29  64 N7        30.30R WCI  35

$$

NCZ024-NYZ072-PAZ021-071-VAZ022-071-170600-
OTHER REGIONAL OBSERVATIONS

CITY           SKY/WX    TMP DP  RH WIND       PRES   REMARKS
NEW YORK CITY  FAIR      36  12  37 NW9G22    30.19R WCI  29
PHILADELPHIA   MOCLDY    38  23  55 N13       30.22R WCI  30
PITTSBURGH     CLOUDY    29  19  66 N6        30.25S WCI  23
ROANOKE        FAIR      42  33  70 NW9       30.22R
RICHMOND       FAIR      43  31  62 N22G28    30.23R WCI  34
RALEIGH        CLOUDY    56  41  57 N7        30.18R

$$

ANZ530>537-170600-
MARINE OBSERVATIONS

STATION/POSITION TIME  TEMP    WIND        PRES
                       AIR SEA DIR/SP/G
                 (UTC) (F)     (DEG/KT/KT) (MB)
THOMAS PT LIGHT  0500   41 38  330/  9/ 14   N/A
BALT KEY BRIDGE  0448   40     310/ 10/ 14 1024.1R
COVE POINT       0448   41     350/ 17/ 20 1024.3R
LEWISETTA        0448   44 45  340/ 12/ 16 1023.5R
SOLOMONS ISLAND  0448   43 40  350/  6/ 10 1023.7R
PINEY POINT      0406             CALM       N/A

$$





USA.gov is the U.S. government's official web portal to all federal, state and local government web resources and services.